Hamilton, TX

9:45 AM CST on November 23, 2017 (GMT -0600)
Hamilton Municipal

Weather History for KMNZ - January, 2014

Change the Weather History Date:

Tuesday, January 7, 2014

  Actual Average (KACT) Record (KACT)
Temperature  
Mean Temperature 32 °F -  
Max Temperature 46 °F 57 °F 82 °F (2006)
Min Temperature 17 °F 36 °F 8 °F (1912)
Degree Days  
Heating Degree Days 34    
Moisture  
Dew Point 11 °F    
Average Humidity 45    
Maximum Humidity 75    
Minimum Humidity 21    
Precipitation  
Precipitation 0.00 in - - ()
Sea Level Pressure  
Sea Level Pressure 30.41 in    
Wind  
Wind Speed 9 mph (South)    
Max Wind Speed 20 mph    
Max Gust Speed 25 mph    
Visibility 10 miles    
Events      
Averages and records for this station are not official NWS values.
T = Trace of Precipitation, MM = Missing Value Source: NWS Daily Summary

Daily Weather History Graph

Daily Weather History Graph

Search for Another Location

Airport or City:

Trip Planner

Search our weather history database for the weather conditions in past years. The results will help you decide how hot, cold, wet, or windy it might be!

Date:

Astronomy

Jan. 07, 2014 Rise Set
Actual Time 7:33 AM CST 5:44 PM CST
Civil Twilight 7:06 AM CST 6:11 PM CST
Nautical Twilight 6:36 AM CST 6:41 PM CST
Astronomical Twilight 6:06 AM CST 7:11 PM CST
Moon 11:50 AM CST (1/7) No Moon Set
Length of Visible Light 11h 04m
Length of Day
10h 11m
Waxing Crescent, 46% of the Moon is Illuminated
Jan 7
Waxing Crescent
Jan 7
First Quarter
Jan 15
Full
Jan 23
Last Quarter
Jan 30
New

Hourly Weather History & Observations

Time (CST) Temp. Windchill Dew Point Humidity Pressure Visibility Wind Dir Wind Speed Gust Speed Precip Events Conditions
12:15 AM 20.3 °F 13.8 °F 10.4 °F 66% 30.56 in 10.0 mi South 4.6 mph - N/A   Clear
12:35 AM 19.4 °F 10.4 °F 10.4 °F 68% 30.55 in 10.0 mi South 6.9 mph - N/A   Clear
12:55 AM 19.2 °F 9.3 °F 10.9 °F 70% 30.53 in 10.0 mi South 8.1 mph - N/A   Clear
1:15 AM 19.4 °F 10.4 °F 10.8 °F 69% 30.53 in 10.0 mi South 6.9 mph - N/A   Clear
1:35 AM 20.1 °F 11.3 °F 10.8 °F 67% 30.53 in 10.0 mi South 6.9 mph - N/A   Clear
1:55 AM 19.4 °F 10.4 °F 10.4 °F 68% 30.53 in 10.0 mi SSW 6.9 mph - N/A   Clear
2:15 AM 19.4 °F 10.4 °F 10.4 °F 68% 30.53 in 10.0 mi South 6.9 mph - N/A   Clear
2:35 AM 19.4 °F 12.8 °F 10.2 °F 68% 30.53 in 10.0 mi South 4.6 mph - N/A   Clear
2:55 AM 19.8 °F 11.9 °F 10.0 °F 66% 30.53 in 10.0 mi South 5.8 mph - N/A   Clear
3:15 AM 19.2 °F 14.1 °F 10.4 °F 69% 30.53 in 10.0 mi South 3.5 mph - N/A   Clear
3:35 AM 19.4 °F 12.8 °F 10.2 °F 68% 30.53 in 10.0 mi South 4.6 mph - N/A   Clear
3:55 AM 19.0 °F 11.1 °F 10.0 °F 68% 30.53 in 10.0 mi South 5.8 mph - N/A   Clear
4:15 AM 17.8 °F 8.5 °F 10.6 °F 73% 30.53 in 10.0 mi SSW 6.9 mph - N/A   Clear
4:35 AM 18.5 °F 9.3 °F 10.2 °F 70% 30.53 in 10.0 mi South 6.9 mph - N/A   Clear
4:55 AM 18.7 °F 10.6 °F 10.4 °F 70% 30.52 in 10.0 mi South 5.8 mph - N/A   Clear
5:15 AM 18.5 °F 10.4 °F 10.6 °F 71% 30.52 in 10.0 mi South 5.8 mph - N/A   Clear
5:35 AM 17.6 °F 9.3 °F 10.9 °F 75% 30.52 in 10.0 mi South 5.8 mph - N/A   Clear
5:55 AM 17.6 °F 8.2 °F 10.9 °F 75% 30.52 in 10.0 mi South 6.9 mph - N/A   Clear
6:15 AM 18.1 °F 7.9 °F 11.3 °F 75% 30.51 in 10.0 mi South 8.1 mph - N/A   Clear
6:35 AM 18.7 °F 8.6 °F 11.5 °F 74% 30.51 in 10.0 mi South 8.1 mph - N/A   Clear
6:55 AM 19.2 °F 8.4 °F 11.7 °F 72% 30.51 in 10.0 mi South 9.2 mph - N/A   Clear
7:15 AM 19.2 °F 9.3 °F 11.7 °F 72% 30.52 in 10.0 mi South 8.1 mph - N/A   Clear
7:35 AM 18.9 °F 8.0 °F 11.7 °F 74% 30.51 in 10.0 mi South 9.2 mph - N/A   Clear
7:55 AM 19.6 °F 9.7 °F 12.2 °F 73% 30.51 in 10.0 mi South 8.1 mph - N/A   Clear
8:15 AM 21.4 °F 11.9 °F 13.3 °F 71% 30.50 in 10.0 mi South 8.1 mph - N/A   Clear
8:35 AM 22.8 °F 12.9 °F 14.0 °F 69% 30.50 in 10.0 mi South 9.2 mph - N/A   Clear
8:55 AM 24.8 °F 16.9 °F 14.9 °F 66% 30.50 in 10.0 mi South 6.9 mph - N/A   Clear
9:15 AM 27.5 °F 18.6 °F 16.3 °F 63% 30.51 in 10.0 mi South 9.2 mph - N/A   Clear
9:35 AM 30.7 °F 22.6 °F 15.3 °F 53% 30.51 in 10.0 mi SSW 9.2 mph - N/A   Clear
9:55 AM 32.0 °F 23.0 °F 14.2 °F 48% 30.51 in 10.0 mi South 11.5 mph - N/A   Clear
10:15 AM 33.8 °F 25.3 °F 12.7 °F 42% 30.51 in 10.0 mi South 11.5 mph - N/A   Clear
10:35 AM 35.6 °F 28.0 °F 10.4 °F 35% 30.50 in 10.0 mi South 10.4 mph - N/A   Clear
10:55 AM 36.7 °F 28.0 °F 10.2 °F 34% 30.50 in 10.0 mi South 13.8 mph - N/A   Clear
11:15 AM 37.8 °F 30.7 °F 12.0 °F 35% 30.49 in 10.0 mi South 10.4 mph - N/A   Clear
11:35 AM 39.6 °F 33.0 °F 11.5 °F 32% 30.48 in 10.0 mi SSW 10.4 mph - N/A   Clear
11:55 AM 39.6 °F 32.5 °F 11.5 °F 32% 30.46 in 10.0 mi South 11.5 mph 17.3 mph N/A   Clear
12:15 PM 41.2 °F 34.5 °F 12.0 °F 30% 30.44 in 10.0 mi South 11.5 mph - N/A   Clear
12:35 PM 41.9 °F 35.4 °F 11.3 °F 29% 30.42 in 10.0 mi South 11.5 mph 21.9 mph N/A   Clear
12:55 PM 44.1 °F 37.7 °F 9.1 °F 24% 30.40 in 10.0 mi South 12.7 mph 18.4 mph N/A   Clear
1:15 PM 44.6 °F 39.2 °F 7.5 °F 22% 30.38 in 10.0 mi South 10.4 mph 19.6 mph N/A   Clear
1:35 PM 45.1 °F 39.9 °F 7.3 °F 21% 30.37 in 10.0 mi South 10.4 mph 21.9 mph N/A   Clear
1:55 PM 45.1 °F 39.9 °F 7.0 °F 21% 30.36 in 10.0 mi SSW 10.4 mph 20.7 mph N/A   Clear
2:15 PM 46.0 °F 40.2 °F 7.9 °F 21% 30.35 in 10.0 mi South 12.7 mph 21.9 mph N/A   Clear
2:35 PM 45.9 °F 39.7 °F 8.1 °F 21% 30.34 in 10.0 mi South 13.8 mph 24.2 mph N/A   Clear
2:55 PM 46.0 °F 38.8 °F 8.2 °F 21% 30.33 in 10.0 mi South 18.4 mph 21.9 mph N/A   Clear
3:15 PM 46.0 °F 39.6 °F 9.9 °F 23% 30.33 in 10.0 mi South 15.0 mph 23.0 mph N/A   Clear
3:35 PM 46.6 °F - 10.2 °F 23% 30.32 in 10.0 mi South 17.3 mph 20.7 mph N/A   Clear
3:55 PM 46.9 °F - 10.2 °F 23% 30.32 in 10.0 mi SSW 17.3 mph 21.9 mph N/A   Clear
4:15 PM 46.8 °F - 9.9 °F 22% 30.32 in 10.0 mi SSW 15.0 mph - N/A   Clear
4:35 PM 46.6 °F - 9.5 °F 22% 30.31 in 10.0 mi South 15.0 mph - N/A   Clear
4:55 PM 45.7 °F 39.8 °F 9.1 °F 23% 30.31 in 10.0 mi South 12.7 mph 23.0 mph N/A   Clear
5:15 PM 45.3 °F 39.3 °F 9.9 °F 24% 30.30 in 10.0 mi South 12.7 mph 21.9 mph N/A   Clear
5:35 PM 43.9 °F 36.8 °F 9.9 °F 25% 30.30 in 10.0 mi South 15.0 mph 23.0 mph N/A   Clear
5:55 PM 42.8 °F 36.2 °F 10.4 °F 27% 30.29 in 10.0 mi South 12.7 mph 19.6 mph N/A   Clear
6:15 PM 41.2 °F 33.7 °F 10.4 °F 28% 30.28 in 10.0 mi South 13.8 mph 18.4 mph N/A   Clear
6:35 PM 40.3 °F 33.0 °F 10.0 °F 29% 30.28 in 10.0 mi South 12.7 mph 18.4 mph N/A   Clear
6:55 PM 39.7 °F 32.3 °F 9.7 °F 29% 30.28 in 10.0 mi South 12.7 mph 18.4 mph N/A   Clear
7:15 PM 38.8 °F 31.2 °F 9.9 °F 30% 30.28 in 10.0 mi SSE 12.7 mph - N/A   Scattered Clouds
7:35 PM 37.8 °F 29.8 °F 10.4 °F 32% 30.27 in 10.0 mi South 12.7 mph - N/A   Scattered Clouds
7:55 PM 37.2 °F 30.0 °F 10.4 °F 33% 30.27 in 10.0 mi South 10.4 mph - N/A   Clear
8:15 PM 38.1 °F 29.8 °F 9.5 °F 31% 30.28 in 10.0 mi South 13.8 mph 19.6 mph N/A   Clear
8:35 PM 37.4 °F 29.3 °F 10.0 °F 32% 30.28 in 10.0 mi South 12.7 mph 16.1 mph N/A   Clear
8:55 PM 39.2 °F 30.8 °F 10.2 °F 30% 30.28 in 10.0 mi South 15.0 mph 21.9 mph N/A   Mostly Cloudy
9:15 PM 40.1 °F 31.6 °F 10.4 °F 30% 30.28 in 10.0 mi South 16.1 mph 23.0 mph N/A   Overcast
9:35 PM 40.3 °F 32.2 °F 11.3 °F 31% 30.28 in 10.0 mi South 15.0 mph 20.7 mph N/A   Overcast
9:55 PM 40.1 °F 32.4 °F 11.3 °F 31% 30.28 in 10.0 mi South 13.8 mph 19.6 mph N/A   Overcast
10:15 PM 40.1 °F 32.4 °F 11.3 °F 31% 30.28 in 10.0 mi South 13.8 mph - N/A   Overcast
10:35 PM 40.1 °F 31.6 °F 11.5 °F 31% 30.28 in 10.0 mi South 16.1 mph 23.0 mph N/A   Overcast
10:55 PM 40.1 °F 31.3 °F 12.4 °F 32% 30.28 in 10.0 mi South 17.3 mph - N/A   Overcast
11:15 PM 40.1 °F 31.0 °F 13.1 °F 33% 30.27 in 10.0 mi South 18.4 mph - N/A   Overcast
11:35 PM 40.1 °F 30.7 °F 14.4 °F 35% 30.26 in 10.0 mi South 19.6 mph 25.3 mph N/A   Overcast
11:55 PM 40.1 °F 31.3 °F 14.9 °F 36% 30.26 in 10.0 mi South 17.3 mph 24.2 mph N/A   Overcast